Home   Weather   Nannestad   Past weeks

Flag for Norway Past Weather in Nannestad, Norway — Yesterday and Last 2 Weeks

Now
55 °F

Clear.


Feels Like: 55 °F
Forecast: 52 / 64 °F
Wind: 5 mph from Southwest

Location: Oslo Gardermoen Airport

Current Time: Sep 1, 2016 at 7:35:08 AM

Latest Report: Sep 1, 2016 at 6:50 AM


Visibility: 10 mi

Pressure: 29.80 "Hg

Humidity: 88%

Dew Point: 52 °F

Location of NannestadLocation

Past Weather in Nannestad — Graph

°F

Nannestad Temperature Yesterday

Maximum temperature yesterday: 68 °F (at 1:20 PM)
Minimum temperature yesterday: 48 °F (at 5:50 AM)
Average temperature yesterday: 59 °F

High & Low Weather Summary for the Past Weeks

 TemperatureHumidityPressure
High73 °F (Aug 17, 5:50 PM)100% (Aug 21, 7:20 AM)30.24 "Hg (Aug 21, 7:20 AM)
Low39 °F (Aug 30, 5:50 AM)33% (Aug 17, 6:20 PM)29.65 "Hg (Aug 26, 3:20 PM)
Average59 °F77%29.97 "Hg
* Reported Aug 17 6:20 AM — Sep 1 6:20 AM, Nannestad, Weather by CustomWeather, © 2016

Note: Actual official high and low records may vary slightly from our data, if they occured in-between our weather recording intervals... More about our weather records

Advertising

Nannestad Weather History for the Previous 24 Hours

Scroll right to see more
 ConditionsComfort  
Time TempWeatherWind HumidityBarometerVisibility
6:20 AM
Thu, Sep 1
54 °FPassing clouds.5 mph94%29.77 "HgN/A
5:50 AM55 °FClear.6 mph88%29.77 "Hg10 mi
5:20 AM55 °FClear.7 mph88%29.77 "Hg10 mi
4:50 AM55 °FClear.8 mph88%29.77 "Hg10 mi
4:20 AM57 °FPassing clouds.10 mph88%29.77 "HgN/A
3:50 AM57 °FPassing clouds.12 mph88%29.77 "HgN/A
3:20 AM57 °FPassing clouds.14 mph88%29.77 "HgN/A
2:50 AM57 °FPassing clouds.14 mph88%29.77 "HgN/A
2:20 AM59 °FPassing clouds.15 mph82%29.80 "HgN/A
1:50 AM59 °FPartly cloudy.12 mph82%29.80 "HgN/A
1:20 AM59 °FPassing clouds.10 mph82%29.80 "HgN/A
12:50 AM59 °FPassing clouds.12 mph82%29.80 "HgN/A
12:20 AM59 °FPassing clouds.10 mph82%29.80 "HgN/A
11:50 PM
Wed, Aug 31
59 °FPassing clouds.10 mph82%29.83 "HgN/A
11:20 PM59 °FPassing clouds.16 mph82%29.80 "HgN/A
10:50 PM59 °FPassing clouds.17 mph82%29.83 "HgN/A
10:20 PM59 °FPassing clouds.14 mph82%29.83 "HgN/A
9:50 PM59 °FPassing clouds.13 mph82%29.86 "HgN/A
9:20 PM59 °FBroken clouds.14 mph82%29.86 "HgN/A
8:50 PM59 °FPartly sunny.14 mph77%29.86 "HgN/A
8:20 PM61 °FPartly sunny.15 mph72%29.86 "HgN/A
7:50 PM61 °FPartly sunny.15 mph77%29.86 "HgN/A
7:20 PM61 °FBroken clouds.15 mph83%29.86 "HgN/A
6:50 PM63 °FBroken clouds.17 mph77%29.89 "HgN/A
6:20 PM63 °FBroken clouds.17 mph77%29.89 "HgN/A
5:50 PM64 °FBroken clouds.16 mph73%29.89 "HgN/A
5:20 PM64 °FBroken clouds.17 mph73%29.89 "HgN/A
4:50 PM66 °FBroken clouds.18 mph68%29.89 "HgN/A
4:20 PM68 °FBroken clouds.18 mph60%29.92 "HgN/A
3:50 PM68 °FBroken clouds.18 mph60%29.92 "HgN/A
3:20 PM68 °FScattered clouds.16 mph56%29.92 "HgN/A
2:50 PM68 °FPassing clouds.14 mph56%29.92 "HgN/A
2:20 PM68 °FSunny.15 mph56%29.92 "Hg10 mi
1:50 PM68 °FPassing clouds.13 mph56%29.92 "HgN/A
1:20 PM68 °FSunny.14 mph56%29.95 "Hg10 mi
12:50 PM66 °FSunny.15 mph56%29.95 "Hg10 mi
12:20 PM66 °FSunny.15 mph60%29.95 "Hg10 mi
11:50 AM64 °FSunny.13 mph68%29.95 "Hg10 mi
11:20 AM63 °FPassing clouds.10 mph73%29.95 "HgN/A
10:50 AM63 °FPassing clouds.12 mph77%29.95 "HgN/A
10:20 AM61 °FSunny.10 mph77%29.98 "Hg10 mi
9:50 AM59 °FPassing clouds.6 mph82%29.98 "HgN/A
9:20 AM55 °FPassing clouds.8 mph94%29.98 "HgN/A
8:50 AM54 °FRain. Cloudy.6 mph94%29.98 "Hg4 mi
8:20 AM52 °FRain. Cloudy.1 mph94%29.98 "HgN/A
7:50 AM54 °FFog.No wind94%29.98 "HgN/A
7:20 AM52 °FFog.No wind94%29.98 "HgN/A
Weather by CustomWeather, © 2016

See weather overviewHow to use our weather pages